This demonstration page uses our WeatherBlox Daily Observations layout. Learn more.

Left ArrowRight Arrow

39.92423, -83.80882

Hourly Observations for February 2, 2019

Temp ( °F °C ) Dew Point ( °F °C ) Humidity (%) Winds ( mph kmh ) Pressure ( in mb ) Visibility ( mi km ) Precip ( " mm )
12:56 am 00:56 Clear 7 -13.9 5 -15 91 91 SE 5 7 30.38 1029 8 12.87472 N/A
1:56 am 01:56 Clear 11 -11.7 10 -12.2 96 96 SSE 8 13 30.35 1028 8 12.87472 N/A
2:12 am 02:12 Partly Cloudy 12 -11 10 -12 92 92 S 7 11 30.38 1029 8 12.87472 N/A
2:21 am 02:21 Mostly Cloudy 12 -11 12 -11 100 100 S 5 7 30.38 1029 8 12.87472 N/A
2:56 am 02:56 Cloudy 15 -9.4 14 -10 95 95 SSE 3 6 30.35 1028 7 11.26538 N/A
3:16 am 03:16 Cloudy with Mist and Fog 16 -9 14 -10 93 93 SSE 3 6 30.38 1029 2.5 4.02335 N/A
3:21 am 03:21 Cloudy with Mist and Fog 16 -9 14 -10 93 93 SSE 5 7 30.38 1029 1 1.60934 N/A
3:25 am 03:25 Cloudy with Freezing Fog 16 -9 14 -10 93 93 S 5 7 30.38 1029 0.5 0.80467 N/A
3:56 am 03:56 Cloudy with Freezing Fog 16 -8.9 15 -9.4 96 96 S 5 7 30.33 1027 0.5 0.80467 N/A
4:08 am 04:08 Cloudy with Mist and Fog 16 -9 14 -10 93 93 S 6 9 30.36 1028 0.75 1.207005 N/A
4:11 am 04:11 Cloudy with Mist and Fog 16 -9 14 -10 93 93 S 6 9 30.36 1028 1.25 2.011675 N/A
4:22 am 04:22 Cloudy with Light Snow 16 -9 14 -10 93 93 S 5 7 30.36 1028 2.5 4.02335 N/A
4:29 am 04:29 Cloudy with Light Snow 16 -9 12 -11 86 86 S 3 6 30.36 1028 4 6.43736 N/A
4:56 am 04:56 Cloudy with Light Snow 13 -10.6 12 -11.1 96 96 N N/A 30.32 1027 8 12.87472 N/A
5:40 am 05:40 Cloudy with Light Snow 14 -10 12 -11 92 92 N N/A 30.36 1028 8 12.87472 N/A
5:56 am 05:56 Cloudy with Light Snow 14 -10 13 -10.6 95 95 S 3 6 30.32 1027 2.5 4.02335 N/A
6:09 am 06:09 Cloudy with Light Snow 16 -9 14 -10 93 93 S 3 6 30.35 1028 3 4.82802 N/A
6:35 am 06:35 Cloudy with Mist and Fog 16 -9 16 -9 100 100 S 5 7 30.34 1027 1.5 2.41401 N/A
6:38 am 06:38 Cloudy with Mist and Fog 18 -8 16 -9 93 93 S 5 7 30.33 1027 0.75 1.207005 N/A
6:44 am 06:44 Cloudy with Freezing Fog 18 -8 16 -9 93 93 SSW 3 6 30.34 1027 0.25 0.402335 N/A
6:56 am 06:56 Cloudy with Freezing Fog 18 -7.8 17 -8.3 96 96 S 5 7 30.31 1026 0.5 0.80467 N/A
7:00 am 07:00 Cloudy with Mist and Fog 18 -8 18 -8 100 100 S 5 7 30.33 1027 1 1.60934 N/A
7:03 am 07:03 Cloudy with Mist and Fog 18 -8 18 -8 100 100 S 3 6 30.33 1027 2 3.21868 N/A
7:11 am 07:11 Cloudy with Mist and Fog 18 -8 18 -8 100 100 S 3 6 30.33 1027 5 8.0467 N/A
7:25 am 07:25 Cloudy with Mist and Fog 19 -7 18 -8 93 93 SSW 3 6 30.33 1027 2.5 4.02335 N/A
7:30 am 07:30 Cloudy with Mist and Fog 19 -7 19 -7 100 100 S 5 7 30.33 1027 1 1.60934 N/A
7:33 am 07:33 Cloudy with Freezing Fog 19 -7 19 -7 100 100 SSW 3 6 30.33 1027 0.5 0.80467 N/A
7:42 am 07:42 Cloudy with Freezing Fog 19 -7 19 -7 100 100 SSW 3 6 30.33 1027 0.25 0.402335 N/A
7:56 am 07:56 Cloudy with Freezing Fog 21 -6.1 20 -6.7 96 96 SSW 5 7 30.3 1026 0.25 0.402335 N/A
8:56 am 08:56 Cloudy with Freezing Fog 22 -5.6 22 -5.6 100 100 S 3 6 30.29 1026 5 8.0467 N/A
9:56 am 09:56 Cloudy with Freezing Fog 25 -3.9 25 -3.9 100 100 SSW 6 9 30.29 1026 0.25 0.402335 N/A
10:56 am 10:56 Cloudy with Freezing Fog 27 -2.8 27 -2.8 100 100 SW 6 9 30.29 1026 0.5 0.80467 N/A
11:10 am 11:10 Cloudy with Mist and Fog 28 -2 28 -2 100 100 SW 6 9 30.29 1026 0.75 1.207005 N/A
11:47 am 11:47 Cloudy with Mist and Fog 28 -2 28 -2 100 100 SW 6 9 30.29 1026 1 1.60934 0.04 1.016
11:54 am 11:54 Cloudy with Mist and Fog 28 -2 28 -2 100 100 SSW 3 6 30.29 1026 1.5 2.41401 0.06 1.524
11:56 am 11:56 Cloudy with Mist and Fog 29 -1.7 29 -1.7 100 100 SW 5 7 30.29 1026 1.5 2.41401 0.06 1.524
12:09 pm 12:09 Cloudy with Mist and Fog 28 -2 28 -2 100 100 SSW 5 7 30.27 1025 2 3.21868 0.02 0.508
12:28 pm 12:28 Cloudy with Mist and Fog 28 -2 28 -2 100 100 SSW 7 11 30.26 1025 3 4.82802 0.04 1.016
12:52 pm 12:52 Cloudy with Mist and Fog 30 -1 30 -1 100 100 S 7 11 30.25 1024 5 8.0467 0.04 1.016
12:56 pm 12:56 Cloudy with Mist and Fog 30 -1.1 30 -1.1 100 100 SSW 7 11 30.24 1024 5 8.0467 0.04 1.016
1:56 pm 13:56 Cloudy with Mist and Fog 32 undefined 32 undefined 100 100 S 8 13 30.21 1023 6 9.65604 N/A
2:18 pm 14:18 Cloudy with Mist and Fog 34 1 34 1 100 100 SSW 6 9 30.21 1023 6 9.65604 N/A
2:46 pm 14:46 Partly Cloudy 36 2 34 1 93 93 SW 6 9 30.2 1023 8 12.87472 N/A
2:56 pm 14:56 Sunny 35 1.7 33 0.6 93 93 SW 6 9 30.19 1022 9 14.48406 N/A
3:56 pm 15:56 Mostly Cloudy 37 2.8 34 1.1 89 89 WSW 6 9 30.18 1022 10 16.0934 N/A
4:56 pm 16:56 Cloudy 38 3.3 34 1.1 86 86 SW 6 9 30.18 1022 10 16.0934 N/A
5:56 pm 17:56 Cloudy 38 3.3 34 1.1 86 86 SSW 3 6 30.17 1022 10 16.0934 N/A
6:42 pm 18:42 Cloudy 37 3 36 2 93 93 SSW 7 11 30.16 1021 9 14.48406 N/A
6:56 pm 18:56 Cloudy 38 3.3 36 2.2 93 93 SSW 7 11 30.16 1021 8 12.87472 N/A
7:36 pm 19:36 Partly Cloudy with Mist and Fog 37 3 36 2 93 93 S 5 7 30.16 1021 6 9.65604 N/A
7:56 pm 19:56 Clear with Mist and Fog 36 2.2 36 2.2 100 100 S 7 11 30.15 1021 5 8.0467 N/A
8:56 pm 20:56 Clear 35 1.7 33 0.6 93 93 SSE 6 9 30.15 1021 9 14.48406 N/A
9:56 pm 21:56 Clear 34 1.1 33 0.6 97 97 SSE 6 9 30.14 1021 7 11.26538 N/A
10:56 pm 22:56 Clear 35 1.7 34 1.1 96 96 SSE 7 11 30.13 1020 8 12.87472 N/A
11:19 pm 23:19 Mostly Cloudy 36 2 36 2 100 100 S 6 9 30.13 1020 8 12.87472 N/A
11:38 pm 23:38 Partly Cloudy 36 2 36 2 100 100 S 5 7 30.13 1020 9 14.48406 N/A
11:56 pm 23:56 Clear 35 1.7 34 1.1 96 96 S 5 7 30.11 1020 9 14.48406 N/A

Powered by AerisWeather